Location: *
(40.7873°S, 98.7174°E)
Time: 12:28:57
(UTC+00:00)

Kosmos-1816 - Pass Details

Date: 21 June 2024
Orbit: 959 x 1007 km, 82.9° (Epoch: 23 July)

Event Time Altitude Azimuth Distance (km) Brightness Sun altitude
Rises 13:58:50 0° 205° (SSW) 3,761 9.4 -43.4°
Reaches altitude 10° 14:02:26 10° 225° (SW) 2,795 8.8 -44.1°
Maximum altitude 14:06:06 16° 260° (W) 2,360 8.5 -44.8°
Drops below altitude 10° 14:09:43 10° 295° (WNW) 2,758 8.8 -45.4°
Sets 14:13:16 0° 316° (NW) 3,686 9.4 -46.1°
